Cosmos 1805 Rocket - Orbit

View from above orbital plane
View from above orbital plane
View from above satellite
View from above satellite

Ground track
Ground track

The orbit data is extracted from the following two-line orbital elements,

1 17192U 86097B   13142.74275615  .00000286  00000-0  32578-4 0  1322
2 17192 082.5075 210.8405 0015836 321.6123 186.2764 14.82611924428354
Epoch (UTC): 22 May 2013 17:49:34
Eccentricity: 0.0015836
inclination: 82.5075°
perigee height: 610 km
apogee height: 632 km
right ascension of ascending node: 210.8405°
argument of perigee: 321.6123°
revolutions per day: 14.82611924
mean anomaly at epoch: 186.2764°
orbit number at epoch: 42835

The dashed part of the orbit path shows where the satellite is in the earth's shadow,  

Developed and maintained by Chris Peat, Heavens-Above GmbH. Please read the updated FAQ before sending e-mail. Imprint. DLR